Weather History for Marion Regional, IL

Change the Weather History Date:

Friday, April 12, 2013

  Actual Average Record
Temperature  
Mean Temperature 45 °F -  
Max Temperature 55 °F 68 °F 83 °F (1977)
Min Temperature 35 °F 42 °F 22 °F (1989)
Degree Days  
Heating Degree Days 20    
Moisture  
Dew Point 33 °F    
Average Humidity 69    
Maximum Humidity 93    
Minimum Humidity 44    
Precipitation  
Precipitation 0.00 in - - ()
Sea Level Pressure  
Sea Level Pressure 29.89 in    
Wind  
Wind Speed 4 mph (West)    
Max Wind Speed 17 mph    
Max Gust Speed 16 mph    
Visibility 12 miles    
Events      
Averages and records for this station are not official NWS values.
T = Trace of Precipitation, MM = Missing Value Source: NWS Daily Summary

Daily Weather History Graph

Daily Weather History Graph

Search for Another Location

Airport:

Trip Planner

Search our weather history database for the weather conditions in past years. The results will help you decide how hot, cold, wet, or windy it might be!

Date:

Astronomy

Apr. 12, 2013 Rise Set
Actual Time 6:24 AM CDT 7:29 PM CDT
Civil Twilight 5:57 AM CDT 7:56 PM CDT
Nautical Twilight 5:25 AM CDT 8:28 PM CDT
Astronomical Twilight 4:52 AM CDT 9:01 PM CDT
Moon 7:36 AM CDT (4/12) 9:57 PM CDT (4/12)
Length of Visible Light 13h 58m
Length of Day
13h 04m
Waxing Crescent, 5% of the Moon is Illuminated
Apr 12
Waxing Crescent
Apr 18
First Quarter
Apr 25
Full
May 2
Last Quarter
May 9
New

Hourly Weather History & Observations

Time (CDT) Temp. Windchill Dew Point Humidity Pressure Visibility Wind Dir Wind Speed Gust Speed Precip Events Conditions
12:15 AM 42.8 °F 41.1 °F 32.0 °F 66% 29.79 in 10.0 mi WNW 3.5 mph - N/A   Clear
12:35 AM 42.8 °F 41.1 °F 32.0 °F 66% 29.79 in 10.0 mi West 3.5 mph - N/A   Clear
12:55 AM 41.0 °F - 32.0 °F 70% 29.79 in 10.0 mi Calm Calm - N/A   Clear
1:15 AM 39.2 °F 37.0 °F 32.0 °F 75% 29.78 in 10.0 mi SSW 3.5 mph - N/A   Clear
1:35 AM 39.2 °F - 33.8 °F 81% 29.78 in 10.0 mi Calm Calm - N/A   Clear
1:55 AM 37.4 °F - 32.0 °F 81% 29.78 in 10.0 mi Calm Calm - N/A   Clear
2:15 AM 37.4 °F - 33.8 °F 87% 29.77 in 10.0 mi Calm Calm - N/A   Clear
2:35 AM 37.4 °F - 33.8 °F 87% 29.77 in 10.0 mi Calm Calm - N/A   Clear
2:55 AM 37.4 °F 34.9 °F 33.8 °F 87% 29.77 in 10.0 mi SSW 3.5 mph - N/A   Clear
3:15 AM 37.4 °F 34.9 °F 33.8 °F 87% 29.77 in 10.0 mi SSW 3.5 mph - N/A   Clear
3:35 AM 37.4 °F 33.8 °F 33.8 °F 87% 29.77 in 10.0 mi South 4.6 mph - N/A   Clear
3:55 AM 37.4 °F 34.9 °F 33.8 °F 87% 29.78 in 10.0 mi SSW 3.5 mph - N/A   Clear
4:15 AM 37.4 °F 34.9 °F 33.8 °F 87% 29.79 in 10.0 mi SW 3.5 mph - N/A   Clear
4:35 AM 41.0 °F 37.1 °F 32.0 °F 70% 29.79 in 10.0 mi SW 5.8 mph - N/A   Clear
4:55 AM 41.0 °F 38.0 °F 32.0 °F 70% 29.79 in 10.0 mi SW 4.6 mph - N/A   Clear
5:15 AM 41.0 °F 39.0 °F 32.0 °F 70% 29.80 in 10.0 mi SW 3.5 mph - N/A   Clear
5:35 AM 39.2 °F 35.0 °F 32.0 °F 75% 29.80 in 10.0 mi SSW 5.8 mph - N/A   Clear
5:55 AM 35.6 °F 30.7 °F 33.8 °F 93% 29.81 in 10.0 mi SSW 5.8 mph - N/A   Clear
6:15 AM 35.6 °F 31.7 °F 33.8 °F 93% 29.82 in 10.0 mi SSW 4.6 mph - N/A   Scattered Clouds
6:52 AM 41.0 °F 37.1 °F 33.8 °F 76% 29.83 in 20.0 mi SW 5.8 mph - N/A   Mostly Cloudy
7:53 AM 42.8 °F 38.0 °F 35.6 °F 76% 29.84 in 20.0 mi WSW 8.1 mph - N/A   Scattered Clouds
10:52 AM 48.2 °F - 35.6 °F 62% 29.86 in 20.0 mi WSW 15.0 mph - N/A   Scattered Clouds
11:55 AM 51.8 °F - 33.8 °F 50% 29.87 in 20.0 mi WSW 11.5 mph - N/A   Mostly Cloudy
12:55 PM 51.8 °F - 32.0 °F 47% 29.87 in 15.0 mi WSW 13.8 mph - N/A   Mostly Cloudy
1:57 PM 55.4 °F - 33.8 °F 44% 29.88 in 20.0 mi West 13.8 mph - N/A   Mostly Cloudy
2:55 PM 55.4 °F - 33.8 °F 44% 29.89 in 20.0 mi West 17.3 mph - N/A   Mostly Cloudy
4:55 PM 55.4 °F - 33.8 °F 44% 29.90 in 20.0 mi North 11.5 mph - N/A   Scattered Clouds
5:55 PM 51.8 °F - 33.8 °F 50% 29.93 in 20.0 mi NNW 11.5 mph - N/A   Clear
6:35 PM 50.0 °F - 32.0 °F 50% 29.95 in 10.0 mi NNW 9.2 mph 16.1 mph N/A   Clear
6:55 PM 50.0 °F - 32.0 °F 50% 29.95 in 10.0 mi NNW 6.9 mph - N/A   Clear
7:15 PM 50.0 °F - 32.0 °F 50% 29.96 in 10.0 mi NNW 8.1 mph - N/A   Clear
7:35 PM 46.4 °F 42.9 °F 32.0 °F 57% 29.97 in 10.0 mi North 6.9 mph - N/A   Clear
7:55 PM 46.4 °F 44.3 °F 32.0 °F 57% 29.98 in 10.0 mi North 4.6 mph - N/A   Clear
8:15 PM 44.6 °F 41.4 °F 32.0 °F 61% 29.99 in 10.0 mi North 5.8 mph - N/A   Clear
8:35 PM 44.6 °F 42.2 °F 32.0 °F 61% 29.99 in 10.0 mi North 4.6 mph - N/A   Clear
8:55 PM 44.6 °F 41.4 °F 32.0 °F 61% 30.01 in 10.0 mi NNW 5.8 mph - N/A   Clear
9:15 PM 44.6 °F 42.2 °F 32.0 °F 61% 30.02 in 10.0 mi NNW 4.6 mph - N/A   Clear
9:35 PM 42.8 °F 41.1 °F 32.0 °F 66% 30.02 in 10.0 mi NNW 3.5 mph - N/A   Clear
9:55 PM 42.8 °F - 32.0 °F 66% 30.03 in 10.0 mi Calm Calm - N/A   Clear
10:15 PM 42.8 °F - 32.0 °F 66% 30.04 in 10.0 mi Calm Calm - N/A   Clear
10:35 PM 41.0 °F - 32.0 °F 70% 30.04 in 10.0 mi Calm Calm - N/A   Clear
10:55 PM 41.0 °F - 32.0 °F 70% 30.04 in 10.0 mi Calm Calm - N/A   Clear
11:15 PM 39.2 °F - 33.8 °F 81% 30.05 in 10.0 mi Calm Calm - N/A   Clear
11:35 PM 39.2 °F - 33.8 °F 81% 30.05 in 10.0 mi Calm Calm - N/A   Clear
11:55 PM 39.2 °F - 32.0 °F 75% 30.06 in 10.0 mi Calm Calm - N/A   Clear